Time,TemperatureF,DewpointF,PressureIn,WindDirection,WindDirectionDegrees,WindSpeedMPH,WindSpeedGustMPH,Humidity,HourlyPrecipIn,Conditions,Clouds,dailyrainin,SoftwareType,DateUTC
2013-02-21 00:01:00,26.6,17.1,29.69,NW,325,0.0,1.0,67,0.00,,,0.00,Wunderground v.1.15,2013-02-21 05:01:00,
2013-02-21 00:06:00,26.5,17.0,29.69,NW,317,1.0,3.0,67,0.00,,,0.00,Wunderground v.1.15,2013-02-21 05:06:00,
2013-02-21 00:11:00,26.6,17.1,29.69,NW,320,1.0,3.0,67,0.00,,,0.00,Wunderground v.1.15,2013-02-21 05:11:00,
2013-02-21 00:16:00,26.5,17.4,29.69,NW,320,1.0,3.0,68,0.00,,,0.00,Wunderground v.1.15,2013-02-21 05:16:00,
2013-02-21 00:26:00,26.4,16.9,29.69,West,270,1.0,1.0,67,0.00,,,0.00,Wunderground v.1.15,2013-02-21 05:26:00,
2013-02-21 00:36:00,26.3,17.2,29.69,NNE,15,1.0,2.0,68,0.00,,,0.00,Wunderground v.1.15,2013-02-21 05:36:00,
2013-02-21 00:46:00,26.2,17.1,29.69,North,355,1.0,2.0,68,0.00,,,0.00,Wunderground v.1.15,2013-02-21 05:46:00,
2013-02-21 01:01:00,26.2,17.4,29.69,West,261,1.0,2.0,69,0.00,,,0.00,Wunderground v.1.15,2013-02-21 06:01:00,
2013-02-21 01:06:00,26.2,17.4,29.69,NNW,342,1.0,2.0,69,0.00,,,0.00,Wunderground v.1.15,2013-02-21 06:06:00,
2013-02-21 01:16:00,26.1,17.3,29.69,NW,311,2.0,2.0,69,0.00,,,0.00,Wunderground v.1.15,2013-02-21 06:16:00,
2013-02-21 01:26:00,26.1,17.3,29.69,NNE,15,2.0,3.0,69,0.00,,,0.00,Wunderground v.1.15,2013-02-21 06:26:00,
2013-02-21 01:36:00,26.1,17.3,29.69,West,279,1.0,3.0,69,0.00,,,0.00,Wunderground v.1.15,2013-02-21 06:36:00,
2013-02-21 01:46:00,26.0,17.2,29.69,WSW,242,2.0,2.0,69,0.00,,,0.00,Wunderground v.1.15,2013-02-21 06:46:00,
2013-02-21 01:56:00,25.9,17.5,29.70,WSW,242,1.0,1.0,70,0.00,,,0.00,Wunderground v.1.15,2013-02-21 06:56:00,
2013-02-21 02:06:00,25.8,17.4,29.69,NNE,19,1.0,2.0,70,0.00,,,0.00,Wunderground v.1.15,2013-02-21 07:06:00,
2013-02-21 02:16:00,25.8,17.0,29.69,NW,326,1.0,1.0,69,0.00,,,0.00,Wunderground v.1.15,2013-02-21 07:16:00,
2013-02-21 02:26:00,25.8,17.0,29.69,SW,234,2.0,3.0,69,0.00,,,0.00,Wunderground v.1.15,2013-02-21 07:26:00,
2013-02-21 02:36:00,25.9,17.1,29.68,NW,323,1.0,2.0,69,0.00,,,0.00,Wunderground v.1.15,2013-02-21 07:36:00,
2013-02-21 02:46:00,25.8,17.0,29.68,SSW,207,1.0,1.0,69,0.00,,,0.00,Wunderground v.1.15,2013-02-21 07:46:00,
2013-02-21 02:56:00,25.7,16.6,29.69,WSW,248,1.0,2.0,68,0.00,,,0.00,Wunderground v.1.15,2013-02-21 07:56:00,
2013-02-21 03:06:00,25.7,16.9,29.69,SSE,160,1.0,1.0,69,0.00,,,0.00,Wunderground v.1.15,2013-02-21 08:06:00,
2013-02-21 03:11:00,25.5,16.7,29.69,NNW,333,1.0,1.0,69,0.00,,,0.00,Wunderground v.1.15,2013-02-21 08:11:00,
2013-02-21 03:16:00,25.6,16.8,29.69,NW,305,1.0,3.0,69,0.00,,,0.00,Wunderground v.1.15,2013-02-21 08:16:00,
2013-02-21 03:26:00,25.6,16.5,29.69,SW,230,2.0,2.0,68,0.00,,,0.00,Wunderground v.1.15,2013-02-21 08:26:00,
2013-02-21 03:36:00,25.6,16.5,29.68,NW,311,2.0,2.0,68,0.00,,,0.00,Wunderground v.1.15,2013-02-21 08:36:00,
2013-02-21 03:46:00,25.6,16.5,29.69,WSW,253,1.0,2.0,68,0.00,,,0.00,Wunderground v.1.15,2013-02-21 08:46:00,
2013-02-21 03:51:00,25.5,16.4,29.69,WSW,253,1.0,1.0,68,0.00,,,0.00,Wunderground v.1.15,2013-02-21 08:51:00,
2013-02-21 04:01:00,25.4,16.3,29.69,NW,326,1.0,1.0,68,0.00,,,0.00,Wunderground v.1.15,2013-02-21 09:01:00,
2013-02-21 04:11:00,25.4,16.3,29.69,WNW,290,1.0,1.0,68,0.00,,,0.00,Wunderground v.1.15,2013-02-21 09:11:00,
2013-02-21 04:16:00,25.4,16.3,29.69,WSW,254,1.0,2.0,68,0.00,,,0.00,Wunderground v.1.15,2013-02-21 09:16:00,
2013-02-21 04:26:00,25.3,16.5,29.68,WSW,252,1.0,2.0,69,0.00,,,0.00,Wunderground v.1.15,2013-02-21 09:26:00,
2013-02-21 04:36:00,25.2,16.5,29.68,NE,55,1.0,1.0,69,0.00,,,0.00,Wunderground v.1.15,2013-02-21 09:36:00,
2013-02-21 04:46:00,25.1,16.4,29.70,ENE,58,1.0,1.0,69,0.00,,,0.00,Wunderground v.1.15,2013-02-21 09:46:00,
2013-02-21 04:56:00,24.9,16.2,29.70,SSE,152,1.0,3.0,69,0.00,,,0.00,Wunderground v.1.15,2013-02-21 09:56:00,
2013-02-21 05:06:00,24.8,16.1,29.70,SSE,161,1.0,1.0,69,0.00,,,0.00,Wunderground v.1.15,2013-02-21 10:06:00,
2013-02-21 05:16:00,24.7,16.0,29.70,NNW,344,1.0,2.0,69,0.00,,,0.00,Wunderground v.1.15,2013-02-21 10:16:00,
2013-02-21 05:26:00,24.7,16.0,29.71,NW,323,1.0,1.0,69,0.00,,,0.00,Wunderground v.1.15,2013-02-21 10:26:00,
2013-02-21 05:36:00,24.6,15.9,29.71,NW,322,1.0,1.0,69,0.00,,,0.00,Wunderground v.1.15,2013-02-21 10:36:00,
2013-02-21 05:46:00,24.5,15.8,29.72,NW,322,0.0,1.0,69,0.00,,,0.00,Wunderground v.1.15,2013-02-21 10:46:00,
2013-02-21 05:56:00,24.3,15.9,29.72,NW,323,0.0,0.0,70,0.00,,,0.00,Wunderground v.1.15,2013-02-21 10:56:00,
2013-02-21 06:06:00,24.4,16.0,29.72,WSW,242,1.0,2.0,70,0.00,,,0.00,Wunderground v.1.15,2013-02-21 11:06:00,
2013-02-21 06:16:00,24.5,16.1,29.72,NNW,338,1.0,1.0,70,0.00,,,0.00,Wunderground v.1.15,2013-02-21 11:16:00,
2013-02-21 06:26:00,24.6,16.2,29.73,NNW,335,1.0,2.0,70,0.00,,,0.00,Wunderground v.1.15,2013-02-21 11:26:00,
2013-02-21 06:31:00,24.6,16.2,29.73,NNE,28,1.0,1.0,70,0.00,,,0.00,Wunderground v.1.15,2013-02-21 11:31:00,
2013-02-21 06:41:00,24.5,16.1,29.73,ENE,65,1.0,3.0,70,0.00,,,0.00,Wunderground v.1.15,2013-02-21 11:41:00,
2013-02-21 06:46:00,24.5,16.1,29.73,ENE,71,1.0,3.0,70,0.00,,,0.00,Wunderground v.1.15,2013-02-21 11:46:00,
2013-02-21 06:56:00,24.4,16.0,29.73,SSE,155,1.0,2.0,70,0.00,,,0.00,Wunderground v.1.15,2013-02-21 11:56:00,
2013-02-21 07:06:00,24.4,16.0,29.73,SSE,157,1.0,1.0,70,0.00,,,0.00,Wunderground v.1.15,2013-02-21 12:06:00,
2013-02-21 07:16:00,24.5,15.8,29.73,South,169,1.0,1.0,69,0.00,,,0.00,Wunderground v.1.15,2013-02-21 12:16:00,
2013-02-21 07:26:00,24.6,15.5,29.73,WNW,300,1.0,2.0,68,0.00,,,0.00,Wunderground v.1.15,2013-02-21 12:26:00,
2013-02-21 07:36:00,24.7,14.6,29.74,WNW,298,2.0,3.0,65,0.00,,,0.00,Wunderground v.1.15,2013-02-21 12:36:00,
2013-02-21 07:45:00,24.6,14.5,29.74,North,360,2.0,3.0,65,0.00,,,0.00,Wunderground v.1.15,2013-02-21 12:45:00,
2013-02-21 07:51:00,24.5,13.7,29.74,WSW,246,2.0,2.0,63,0.00,,,0.00,Wunderground v.1.15,2013-02-21 12:51:00,
2013-02-21 07:56:00,24.5,13.7,29.74,WSW,249,2.0,2.0,63,0.00,,,0.00,Wunderground v.1.15,2013-02-21 12:56:00,
2013-02-21 08:06:00,24.3,13.1,29.74,West,261,3.0,5.0,62,0.00,,,0.00,Wunderground v.1.15,2013-02-21 13:06:00,
2013-02-21 08:16:00,24.3,12.8,29.74,SW,225,2.0,3.0,61,0.00,,,0.00,Wunderground v.1.15,2013-02-21 13:16:00,
2013-02-21 08:25:00,24.4,12.9,29.74,NNW,343,2.0,3.0,61,0.00,,,0.00,Wunderground v.1.15,2013-02-21 13:25:00,
2013-02-21 08:36:00,24.7,12.8,29.74,NNE,24,2.0,5.0,60,0.00,,,0.00,Wunderground v.1.15,2013-02-21 13:36:00,
2013-02-21 08:46:00,24.8,13.2,29.74,SW,220,1.0,2.0,61,0.00,,,0.00,Wunderground v.1.15,2013-02-21 13:46:00,
2013-02-21 08:56:00,25.2,13.2,29.74,WSW,243,2.0,4.0,60,0.00,,,0.00,Wunderground v.1.15,2013-02-21 13:56:00,